Simultaneous Nadir Overpasses (SNOs) Predictions

Prediction of SNOs between GOES-15 and TERRA Satellite Orbit:

Table of predicted SNOs for the next 14.0 days since TLE Epoch: 3/31/2012
Index Date Time (GOES-15) GOES-15 Lat,Lon TERRA Lat,Lon Distance(km) Time Diff (sec)
1 04/01/2012 07:18:15 0.09,-134.78 0.73,-131.90 328.26 80
2 04/01/2012 19:36:50 -0.09,-134.80 0.36,-137.05 256.10 80
3 04/03/2012 19:27:16 -0.09,-134.71 -0.25,-134.09 71.89 80
4 04/05/2012 19:15:01 -0.09,-134.62 -0.82,-131.10 399.21 80
5 04/06/2012 07:33:45 0.09,-134.56 -0.25,-136.30 197.59 80
6 04/08/2012 07:24:10 0.09,-134.45 0.33,-133.32 128.84 80
7 04/08/2012 19:42:44 -0.09,-134.46 0.75,-138.48 456.05 80
8 04/10/2012 07:11:55 0.10,-134.35 0.92,-130.34 454.43 80
9 04/10/2012 19:30:30 -0.10,-134.35 0.16,-135.50 130.61 80
10 04/12/2012 19:20:55 -0.10,-134.24 -0.45,-132.53 194.45 80
11 04/13/2012 07:42:17 0.10,-134.17 -0.67,-137.71 402.70 80




NCC Satellite Simultaneous Nadir Overpasses (SNOs) Prediction Service
